GFSSE_250_spd_276.txt.gz
Wind_Speed
19 21 24 31 29 27 26 24 20 22 22 21 15 7 8 9 8 6 8 5 4 4 2 6 11 7 15 20 30 35 24 9 2 0 1 5 7 11 14 20 25 32 35
19 22 25 25 28 30 31 27 20 21 19 18 10 9 10 9 8 6 9 4 4 4 3 7 10 11 17 22 31 36 28 14 2 3 4 1 1 3 7 8 13 23 33
19 21 23 27 28 30 29 25 19 18 17 12 8 10 11 8 5 8 5 5 7 7 6 6 11 12 12 19 30 32 31 28 10 4 5 6 8 10 10 13 14 18 20
18 20 22 24 25 27 22 17 16 13 12 9 11 11 11 7 9 8 10 10 10 8 7 8 13 12 13 19 26 36 36 32 26 11 7 9 14 15 17 15 17 14 16
12 16 17 19 18 17 19 15 12 11 10 11 14 13 11 12 12 12 13 12 10 9 9 9 12 15 15 20 23 27 40 40 38 33 20 11 6 5 7 8 7 10 16
19 18 17 17 18 20 20 16 11 11 13 16 15 14 13 13 11 14 11 11 9 7 9 10 12 14 15 18 21 26 30 36 40 40 38 22 16 11 6 8 11 15 18
20 19 14 13 13 15 14 16 12 14 19 19 16 14 16 13 13 13 11 9 5 3 4 9 10 12 12 15 21 23 24 28 30 36 42 36 28 22 16 13 15 16 18
20 13 10 5 5 9 13 15 17 21 22 20 17 17 15 16 15 11 7 6 7 4 4 7 11 12 11 17 21 17 21 25 30 30 31 40 36 35 31 25 26 22 20
15 11 12 10 14 16 16 19 21 25 23 21 18 20 20 15 12 9 7 6 6 4 6 7 11 10 11 17 17 15 18 22 26 29 32 30 36 29 31 28 30 32 25
15 12 12 14 17 17 18 19 25 26 23 23 17 19 17 13 11 10 10 10 11 9 7 8 10 6 13 16 17 19 18 22 24 29 32 35 33 35 40 38 42 33 31
20 18 14 15 17 19 21 23 27 25 25 22 17 17 17 11 10 8 8 9 11 10 8 7 8 8 12 15 17 18 17 20 23 23 23 26 30 28 37 36 42 42 36
25 23 15 13 16 19 21 27 26 28 26 20 17 18 12 10 10 10 7 9 11 11 8 9 9 10 10 10 16 15 17 22 23 23 20 26 31 30 34 36 36 43 45
27 24 17 15 17 19 21 26 27 28 23 18 16 11 11 9 10 11 10 10 10 11 8 7 9 10 11 11 12 13 16 19 26 25 22 24 27 32 35 34 36 36 41
26 28 23 19 20 21 23 25 30 27 22 16 16 14 11 8 3 6 5 7 9 9 8 5 4 5 8 11 10 17 15 20 24 26 24 24 30 27 32 31 37 39 38
20 26 26 24 24 26 26 25 25 24 16 14 14 9 6 4 3 2 5 6 7 8 9 6 6 4 7 9 9 13 17 20 19 22 25 25 24 25 30 29 33 39 34
14 15 21 22 22 21 21 20 19 16 14 13 10 6 4 4 3 2 4 5 6 7 5 6 7 5 6 9 10 13 12 18 21 17 22 24 22 26 25 23 30 37 37
13 9 14 15 15 16 15 15 13 12 11 9 9 8 6 3 1 3 5 7 10 9 9 8 7 8 8 8 11 9 11 6 14 16 20 20 19 21 21 21 25 34 34
10 11 10 12 11 8 8 8 9 9 9 8 6 3 3 1 5 7 9 8 11 10 10 10 11 10 11 12 9 11 10 9 12 15 15 18 21 19 15 16 20 27 29
6 7 8 7 11 11 6 5 6 7 6 6 5 2 4 5 4 8 13 10 7 12 12 14 13 9 12 13 12 10 11 13 11 13 15 16 19 20 14 12 16 20 24
5 5 8 9 9 11 10 6 4 7 7 4 3 5 3 7 12 7 11 9 9 12 13 15 12 11 12 14 11 9 12 13 13 13 16 16 17 17 16 8 9 15 20
5 3 4 6 8 7 5 6 9 9 5 5 8 3 6 7 7 8 10 12 13 15 12 13 14 11 8 8 11 12 10 10 8 12 17 22 15 17 17 12 3 11 14
4 6 2 4 5 7 7 6 6 6 6 6 4 5 6 4 8 12 16 15 15 17 13 11 9 11 10 10 10 12 11 9 13 19 21 18 16 14 12 13 8 3 6
4 3 4 4 3 3 3 4 4 6 8 10 11 14 7 8 11 17 17 19 23 20 18 17 16 14 12 12 16 13 14 17 12 19 18 16 15 13 14 13 12 9 9
5 4 2 5 0 6 12 7 7 7 7 9 8 7 10 12 16 16 16 17 20 21 22 22 22 25 23 20 20 19 19 23 24 17 22 19 17 16 15 16 21 13 12
11 12 7 6 10 10 10 8 8 7 7 8 7 13 15 20 20 21 21 21 26 26 28 30 31 30 26 28 26 28 25 24 26 27 24 21 25 22 21 23 23 22 18
12 14 17 18 15 13 12 9 13 11 10 15 18 18 21 23 22 28 31 32 34 35 34 34 31 33 35 32 32 34 33 28 26 31 32 32 28 26 24 25 25 26 24

GFSSE_250_spd_279.txt.gz
Wind_Speed
21 28 34 36 34 37 36 32 31 25 20 18 18 25 16 9 8 8 7 6 6 3 2 6 9 7 11 23 30 30 19 10 4 3 4 5 9 14 18 22 23 23 29
25 26 27 33 36 35 31 33 30 28 22 16 18 20 9 7 7 7 9 4 5 4 3 6 7 8 12 18 29 35 31 19 6 3 5 7 6 7 5 13 21 27 32
27 27 27 30 32 35 34 32 29 25 19 15 17 11 9 9 8 7 9 6 5 6 5 6 7 7 13 19 25 32 39 34 19 11 13 23 15 13 14 12 13 15 20
20 22 25 28 30 32 31 28 21 19 12 11 11 9 10 9 8 10 9 7 9 7 6 6 8 8 13 18 23 25 32 42 31 29 22 24 20 17 19 22 20 21 24
14 19 23 25 26 25 25 22 17 14 11 10 11 13 12 10 10 9 9 11 10 9 6 5 8 11 12 16 21 20 26 31 37 38 23 2 14 9 9 9 13 17 21
18 20 22 23 24 24 20 15 15 12 11 11 15 14 11 11 11 10 8 9 9 8 5 5 7 10 10 18 16 18 23 26 28 33 33 28 2 16 11 12 14 16 18
20 18 16 17 18 20 19 19 15 11 13 18 18 16 16 11 14 10 8 6 2 2 2 5 6 6 10 21 13 19 22 24 28 23 26 32 22 25 20 21 22 21 20
14 12 12 7 9 12 15 15 15 13 20 20 18 18 15 15 14 10 7 5 2 1 4 6 7 5 12 13 14 17 18 24 26 26 28 25 31 30 28 28 28 29 29
13 11 12 5 11 15 17 17 17 21 22 20 20 17 17 15 11 9 5 3 2 2 3 6 3 5 9 14 15 15 18 22 20 22 24 27 26 31 28 31 39 34 31
14 11 10 11 17 20 20 21 24 24 22 21 20 20 17 14 12 11 8 8 8 5 4 4 4 7 11 13 13 14 16 21 18 19 23 27 30 32 32 31 34 40 37
15 11 13 15 16 19 22 26 26 25 24 19 22 18 15 13 11 9 8 9 9 7 4 2 3 6 9 13 13 15 22 25 19 22 24 24 27 32 33 39 38 37 45
14 12 13 14 15 19 25 28 26 27 23 20 21 16 15 12 11 9 7 8 9 9 7 5 7 7 10 9 12 14 18 22 27 22 22 21 29 30 37 34 35 42 45
18 14 13 15 17 22 26 26 27 25 19 21 15 14 12 11 8 7 7 8 10 9 5 4 3 4 9 8 13 16 12 17 21 24 24 25 26 26 29 34 33 34 42
20 19 14 15 18 23 25 27 26 22 19 17 13 12 9 5 4 6 6 7 10 8 6 4 5 4 6 8 5 10 14 17 20 21 22 24 28 28 27 25 25 30 36
22 22 19 18 21 23 24 25 23 19 16 14 12 9 7 4 3 5 7 7 8 7 7 6 6 7 6 5 7 11 11 15 14 19 22 20 10 26 25 28 33 28 29
18 20 20 19 20 21 22 21 18 13 10 10 10 5 2 3 5 4 5 9 8 9 8 8 8 8 9 7 10 8 8 10 10 18 17 18 13 14 17 22 26 31 26
10 13 15 15 15 17 17 16 14 10 9 9 8 7 6 7 4 5 8 14 14 11 10 10 9 11 12 12 8 8 9 5 11 16 14 15 14 11 13 22 22 28 31
6 7 8 8 10 10 11 10 10 10 11 10 8 7 6 1 6 5 7 12 14 11 10 10 11 11 12 12 11 12 10 11 16 12 13 14 16 18 14 10 21 23 28
3 3 3 5 5 9 11 13 12 11 9 7 6 5 6 2 3 5 11 7 8 13 13 14 13 14 11 14 13 13 13 12 13 12 12 15 22 15 15 10 7 16 22
1 1 2 4 7 8 7 8 8 11 9 7 5 6 5 3 7 11 11 9 10 13 15 15 14 14 13 14 13 18 17 17 16 10 13 14 17 14 14 10 12 16 17
2 3 6 7 10 13 12 11 10 11 10 10 8 6 4 5 8 5 4 10 14 13 18 16 14 14 14 9 10 15 14 12 11 14 16 19 17 15 11 16 12 23 18
2 3 5 9 12 12 10 11 8 8 10 4 8 8 9 3 0 1 10 11 19 22 20 16 14 13 13 13 15 15 18 17 17 16 20 20 17 13 9 7 3 18 15
6 3 4 6 11 12 6 2 2 4 1 2 2 4 8 8 12 10 13 20 19 16 16 16 19 19 17 17 18 20 21 23 21 24 23 19 23 18 15 8 10 16 13
12 10 10 9 10 9 9 7 9 6 5 8 7 4 7 11 15 22 23 22 18 22 18 23 23 24 25 26 27 28 27 24 25 26 27 19 27 23 21 18 17 16 18
14 15 16 13 13 11 12 13 10 10 12 11 12 11 10 11 17 19 25 29 27 27 30 34 31 32 31 30 32 33 32 31 29 28 27 28 21 30 25 20 19 19 20
19 19 19 19 21 19 15 14 13 17 17 17 18 14 16 21 20 20 26 25 29 30 33 33 30 31 34 33 33 35 35 34 38 37 33 32 30 32 31 25 22 16 37

GFSSE_250_spd_285.txt.gz
Wind_Speed
28 33 35 33 36 40 42 39 37 30 26 23 24 25 26 23 24 11 2 3 3 3 1 2 2 4 15 15 19 22 22 17 21 20 15 13 14 26 20 14 14 16 21
26 31 36 39 39 39 41 40 35 32 26 26 18 23 13 14 5 6 7 6 4 4 3 3 4 8 11 18 19 16 28 15 15 15 13 16 16 18 24 15 14 11 15
30 32 35 38 39 39 39 39 32 29 22 19 19 16 9 6 7 8 10 6 3 5 3 4 5 6 12 16 19 19 21 21 24 21 15 21 19 17 21 19 16 16 20
32 34 36 37 36 35 33 32 28 25 19 18 15 14 11 8 10 8 9 7 5 4 1 4 6 6 13 15 20 20 20 21 18 20 15 15 19 29 30 27 22 18 18
22 21 23 25 28 28 27 25 22 19 17 13 9 6 7 10 8 7 7 7 8 5 2 5 7 6 15 12 20 21 23 21 22 22 20 19 22 23 26 36 38 38 29
23 23 24 25 26 24 21 19 14 13 11 6 4 7 11 11 11 8 8 8 8 3 4 7 7 10 17 13 17 15 17 21 26 20 25 20 24 24 26 34 34 35 39
17 16 16 17 18 19 21 15 10 10 9 6 7 14 13 14 10 10 10 8 5 1 3 5 6 13 15 12 15 17 13 15 18 25 8 21 21 22 29 31 33 36 38
19 16 15 12 10 13 15 16 12 13 10 11 17 16 16 15 13 11 8 6 5 3 1 4 3 11 13 12 14 16 16 17 20 13 24 24 23 30 29 29 30 32 36
15 14 11 7 5 12 17 21 17 14 15 20 21 20 16 15 11 8 5 4 6 5 3 2 2 9 8 6 13 16 15 15 16 20 22 21 29 32 29 28 34 33 34
14 14 16 12 13 18 22 23 19 20 23 21 20 17 18 13 8 6 7 7 7 6 3 2 3 5 4 4 11 16 18 17 15 20 12 15 23 33 33 37 34 37 38
14 17 16 17 20 23 26 25 26 25 23 22 20 20 17 14 13 11 9 6 6 4 2 5 5 2 3 6 8 15 14 14 17 17 16 20 23 28 30 33 36 33 35
15 15 17 19 25 28 29 29 27 26 23 21 20 16 14 14 11 11 9 8 6 5 4 5 5 1 4 7 2 16 8 8 17 15 18 15 14 20 25 29 29 34 35
14 15 16 19 27 29 30 31 30 28 26 20 17 13 13 13 11 11 8 7 6 5 2 3 1 5 6 7 7 10 7 2 10 17 17 17 20 17 20 24 22 28 33
15 15 17 21 27 27 29 28 29 27 7 18 14 10 10 9 8 9 9 9 7 6 5 1 3 6 6 7 7 8 9 9 13 17 19 18 22 17 9 16 23 25 25
17 16 16 21 24 26 26 22 20 13 14 14 10 9 8 7 6 4 5 6 7 5 4 6 4 4 5 7 8 11 8 10 14 16 18 17 19 20 13 17 16 24 26
17 18 16 20 23 20 19 15 14 13 14 13 10 7 4 5 3 5 1 4 6 9 12 9 5 6 6 6 4 8 12 12 11 11 12 12 14 15 16 16 17 15 23
10 15 16 18 18 16 13 12 12 12 10 7 4 2 5 5 6 4 3 6 7 3 5 9 10 10 8 7 7 8 10 13 16 12 13 11 13 15 16 18 15 12 15
6 7 12 14 14 13 12 9 8 6 4 2 1 3 1 2 4 3 7 9 7 8 11 13 10 10 8 8 7 6 10 4 13 10 11 15 20 19 19 19 15 13 16
3 5 4 8 11 10 8 6 5 4 4 3 3 3 3 4 3 5 8 6 8 10 9 13 10 12 12 12 11 15 13 15 12 14 11 8 16 19 18 17 13 13 16
3 4 5 3 3 5 5 4 4 5 6 5 4 4 5 6 6 2 2 4 8 13 11 12 14 14 11 12 12 16 17 17 15 15 16 19 15 14 18 17 11 9 14
8 3 4 4 3 4 3 2 2 3 5 5 4 5 7 6 8 10 3 7 12 15 16 13 17 15 14 13 15 17 19 20 16 16 18 22 21 20 19 16 15 12 13
5 8 6 7 9 10 9 7 8 9 9 12 10 11 11 10 6 2 6 12 21 21 23 22 22 17 20 22 19 23 25 22 22 19 20 22 22 22 22 21 18 16 21
9 8 9 9 9 12 12 11 7 6 8 8 10 9 10 12 12 8 7 11 10 14 20 26 28 25 24 26 28 30 33 30 27 27 28 26 25 26 24 23 22 20 19
19 14 13 13 12 11 10 11 11 6 9 11 14 14 17 17 18 17 15 16 22 22 28 28 26 27 31 33 31 33 35 33 35 31 31 31 30 28 30 25 24 17 18
20 20 17 18 16 16 16 14 12 10 11 17 16 17 21 22 23 24 23 24 27 26 28 29 32 30 34 34 37 40 40 41 39 37 38 39 36 32 32 31 29 25 21
16 21 21 22 23 23 19 19 20 19 16 14 18 24 24 25 28 31 33 33 35 37 40 43 40 40 42 42 47 48 43 44 47 47 41 39 41 38 37 35 35 34 34

GFSSE_250_spd_291.txt.gz
Wind_Speed
20 16 20 27 33 35 35 35 36 36 36 33 31 34 35 15 15 13 11 7 4 4 6 10 13 14 16 19 13 17 15 15 20 20 23 23 21 23 25 22 20 19 18
20 22 22 25 31 35 40 39 40 37 37 37 36 31 26 17 13 10 9 7 3 3 8 11 13 12 13 16 16 20 23 23 22 20 23 22 24 24 23 21 18 16 21
25 28 29 31 33 37 38 41 41 41 40 37 32 24 15 12 8 7 7 5 1 4 8 10 10 10 13 13 19 22 20 18 23 15 25 19 20 23 20 21 17 20 23
23 27 29 30 32 36 39 36 37 40 40 38 20 22 10 8 5 6 6 5 2 1 6 9 8 8 9 14 13 16 18 20 21 20 20 21 22 28 33 28 25 32 28
12 15 17 19 22 20 23 30 29 28 23 19 14 11 9 5 5 7 7 7 4 2 4 8 5 10 10 16 17 18 18 15 21 19 22 27 29 30 33 37 33 37 36
17 18 18 18 16 17 19 16 18 15 13 13 12 8 6 6 8 8 7 7 4 3 4 6 6 13 10 15 16 20 24 19 20 22 25 27 30 34 37 39 37 39 40
14 14 15 16 15 13 14 19 13 13 16 15 13 11 10 8 8 9 7 7 4 4 3 2 5 11 11 14 15 15 16 17 14 15 16 24 26 29 32 40 42 46 44
14 14 14 13 12 12 12 17 16 16 18 16 14 14 12 11 9 7 6 4 3 6 2 4 6 9 10 10 13 17 16 14 15 13 14 17 22 20 26 35 35 44 49
18 12 5 2 8 13 16 20 19 22 19 17 17 15 13 9 9 5 3 2 3 4 1 2 4 6 6 6 10 11 15 15 17 16 15 21 23 24 22 26 33 39 49
18 12 12 17 22 23 24 22 23 20 19 19 17 15 11 10 7 2 2 2 2 2 3 2 3 7 8 8 11 20 17 14 15 19 17 23 26 24 16 18 29 36 43
18 17 20 25 30 27 26 24 22 23 21 20 17 14 10 7 5 5 6 3 2 4 3 4 0 6 8 8 13 16 16 16 16 18 22 20 24 23 23 18 23 30 37
20 22 25 30 28 25 22 24 26 24 22 18 15 11 9 9 8 8 9 7 5 5 4 1 1 2 5 9 12 15 15 15 17 20 22 22 22 26 26 24 22 24 32
23 23 25 25 23 25 28 26 25 21 18 16 14 12 9 7 6 6 8 7 7 5 2 2 4 6 9 10 11 10 12 13 14 16 19 21 23 25 23 26 24 21 28
23 26 27 28 28 28 27 23 20 19 16 14 13 12 10 7 4 4 7 7 8 9 8 8 5 6 8 8 8 9 9 9 13 14 17 20 24 25 24 26 20 17 22
20 23 27 28 29 28 22 18 16 15 14 13 12 11 9 6 5 5 5 5 4 4 4 6 6 6 8 9 7 8 8 10 14 15 11 17 25 21 20 22 19 15 18
17 22 23 25 24 20 16 16 13 12 11 11 10 9 6 3 3 3 6 7 6 6 5 13 8 9 9 7 6 9 9 10 14 21 10 7 17 18 18 17 19 16 16
14 14 17 19 16 10 10 8 8 10 9 10 8 4 4 6 6 4 5 7 8 8 8 8 9 10 9 11 13 13 14 15 15 17 10 14 15 12 13 15 22 22 21
14 11 11 11 8 8 10 9 10 8 6 6 5 3 0 1 4 8 10 8 3 1 3 6 8 9 13 9 12 12 12 13 13 16 15 15 13 9 11 7 6 16 19
8 7 7 7 7 6 6 7 2 4 5 5 5 5 3 4 7 10 11 14 13 10 8 13 12 11 20 16 14 14 15 13 12 14 17 18 17 16 13 12 10 12 14
3 1 2 1 4 5 7 5 4 6 6 7 8 8 7 7 6 8 15 15 16 18 17 19 19 16 14 16 19 22 22 22 22 18 18 20 20 20 20 17 15 14 15
8 3 2 1 1 3 4 3 2 3 5 6 6 7 7 8 8 12 15 16 21 18 23 18 12 22 20 22 22 24 30 31 27 27 28 26 25 25 25 27 24 21 19
8 9 8 5 4 5 7 7 7 8 7 10 11 11 9 10 8 9 14 16 17 21 22 21 20 26 30 29 25 27 31 33 33 33 30 31 30 30 31 31 32 30 26
11 11 13 12 9 10 11 10 10 10 9 10 13 13 15 14 15 17 18 19 21 24 25 25 23 25 30 33 33 32 34 31 33 35 36 36 36 38 40 37 35 35 33
13 12 11 19 17 13 10 8 6 10 10 9 11 15 18 19 21 22 24 26 27 29 31 32 34 36 37 36 36 39 42 42 45 46 46 48 47 46 46 44 42 38 39
21 16 17 12 19 20 14 11 11 11 14 13 13 15 18 23 25 27 30 31 32 35 37 39 40 43 44 45 47 49 49 46 45 48 50 49 50 53 52 48 45 43 43
20 21 22 15 10 22 21 19 16 15 16 19 22 23 24 26 28 31 31 32 34 36 39 43 46 47 49 50 51 49 39 32 27 22 28 32 31 35 38 46 51 49 46